Preisvergleich
Suchen Sie bei den großen Preisvergleich Portalen gleichzeitig! 


Sitemap81

4.9.2026 2:05

In den Sitemaps finden Sie im Meta-Preisvergleich häufig gefragte Suchworte sortiert nach der Anzahl der Anfragen.

Anfragen Suchwort Ergebnisse Datum Quellen
1plantop gärtnertorf132026-08-16 00:07:0124
1geka plus schlauchstück 1 2 trinkwasser382026-08-16 00:07:0126
1philips hc5630 15 haarschneider802026-08-16 00:07:0129
1vasagle küchenschrank, sideboard mit schubladen 40 x 80 x 8082026-08-16 00:07:0128
1ebike 20 zolle82026-08-16 00:07:0128
1camel activ weste6752026-08-16 00:07:0127
1camel activ weste 54802026-08-16 00:07:0128
1kärcher nass- trockensauger wd 54322026-08-16 00:07:0128
1sabo sa522402026-08-16 00:07:0126
1herren weste baumwolle 542202026-08-16 00:07:0129
1apple ipad 13 128gb 5g612026-08-16 00:07:0128
1cerruti 1881 herren 100ml772026-08-16 00:07:0128
1haba teelicht642026-08-16 00:07:0128
1living nature day oil92026-08-16 00:07:0129
1micropur mf 1t 100 tabletten432026-08-16 00:07:0129
1ever clean plus 2 x 350 ml 90 tabletten142026-08-16 00:07:0127
1fjällräven skule 20l rucksack172026-08-16 00:07:0129
1birkenstock sandale arizona neu2002026-08-17 00:07:0229
1schreibschale352026-08-16 00:07:0126
1kabelkanal uv beständig 80x60122026-08-16 00:07:0128
1denon avc-x 2850h182026-08-16 00:07:0128
1pop-up darkroom82026-08-16 00:07:0126
1t04d100 wartungsbox1372026-08-16 00:07:0128
1xiao sx12621152026-08-16 00:07:0126
1tesa ultra power under water732026-08-17 00:07:0229
1reisglas1122026-08-16 00:07:0126
1aeg wärmepumpentrockner lavatherm 8000252026-08-16 00:07:0128
1zoom hyperace 39262026-08-16 00:07:0128
1zoom hyperace 3 se2022026-08-16 00:07:0129
1philips sonicare diamondclean smart 9400 elektrische zahnbürste612026-08-16 00:07:0129
1id-cooling se-214-xt argb222026-08-16 00:07:0128
1eberhofer neiner gaudi542026-08-16 00:07:0129
1bosch pke18v-30-28922026-08-16 00:07:0126
1eberhofer neiner gaudi blu-ray212026-08-16 00:07:0126
1a2118202061172026-08-16 00:07:0124
1schwalbe lugano 283482026-08-16 00:07:0126
1geekom geekbook x14 pro ultra 9 1tb182026-08-16 00:07:0128
1iniu p51 powerbank 22.5w 20000mah102026-08-16 00:07:0128
1basso diamante disc432026-08-16 00:07:0129
1specialized aethos comp492026-08-16 00:07:0128
1omegon brille solar safe deluxe92026-08-16 00:07:0128
1usw-pro-max-48-poe 720w132026-08-16 00:07:0128
1sportbekleidung herren kurz2332026-08-16 00:07:0129
13ttt vorbau 80mm132026-08-16 00:07:0129
1deckel klappe tütenhalter filterdeckel vorwerk kobold vk 14092026-08-16 00:07:0129
1trittico5962026-08-16 00:07:0128
1anker smart meter gen 24182026-08-16 00:07:0126
1porta split cool midea322026-08-16 00:07:0128
105074739001162026-08-16 00:07:0126
1dw 9500 slim2232026-08-16 00:07:0129
17440 41 42452026-08-16 00:07:0126
1n150 ohne ram452026-08-16 00:07:0129
1reines shilajit aus dem himalaya gebirge332026-08-16 00:07:0129
1varta la95 95 ah 850 a372026-08-16 00:07:0129
1iphone 15 256gb refurbished1652026-08-16 00:07:0129
1schöner wohnen nachfüller raumduft zitronengras82026-08-16 00:07:0129
1bosch unlimited 7 bss71125ah akku staubsauger122026-08-16 00:07:0129
1gravity techno632026-08-16 00:07:0129
1saugschlauch 1 zoll transparent662026-08-16 00:07:0129
1saugschlauch 15m transparent142026-08-16 00:07:0128
1vcp 8331 pro242026-08-16 00:07:0128
1duotone unit 2026722026-08-16 00:07:0127
1jvc hr-s8600302026-08-16 00:07:0128
1zarges 800x600742026-08-16 00:07:0128
1nv-hs830182026-08-16 00:07:0128
1innox pro gtx mid 311703 990382026-08-16 00:07:0129
14013341041249112026-08-16 00:07:0126
1massiv esstisch12112026-08-16 00:07:0128
1saugschlauch diesel1512026-08-16 00:07:0126
1saugschlauch diesel 1zoll82026-08-16 00:07:0128
1charite film102026-08-16 00:07:0129
1de hip ermittlerin mit mords-iq102026-08-16 00:07:0129
1philips vr-1100182026-08-16 00:07:0127
1gleitgel vet.422026-08-16 00:07:0128
1philips vr-1000152026-08-16 00:07:0126
1wenko seifenspender hexa weiß92026-08-16 00:07:0125
1brausetablette electrolyt zitrone132026-08-16 00:07:0128
1brausetablette elektrolyt zitrone652026-08-16 00:07:0129
1carri chef 40 bbq 30 mbar312026-08-16 00:07:0127
1tastatur t590 qwertz702026-08-16 00:07:0126
1wenko seifenspender belluno532026-08-16 00:07:0125
1v-cant-c solarmodul halterung82026-08-16 00:07:0126
1gleitgel vet. 1000ml122026-08-16 00:07:0128
1porta 8001362026-08-16 00:07:0128
1striebel 2cpx052040r999982026-08-16 00:07:0128
1eier 10 stk1722026-08-16 00:07:0128
1abtei sport iso aktiv342026-08-16 00:07:0129
1striebel a19 leer 1fb 9-reihig152026-08-16 00:07:0129
1outwell kaffeefilter232026-08-16 00:07:0129
1fritz box 5690 pro wandhalterung1252026-08-16 00:07:0128
1outwell filter362026-08-16 00:07:0125
1hld leeb1112026-08-17 00:07:0229
1homepilot 12481001142026-08-16 00:07:0127
1kaisda klappfahrrad92026-08-16 00:07:0129
1bosch autobatterie 52a h-470a102026-08-16 00:07:0129
1callaway fairway 141422026-08-16 00:07:0128
1big max hybrid2932026-08-16 00:07:0129
1fender blues deluxe harp c122026-08-16 00:07:0127
1tfa dostmann lt 202272026-08-16 00:07:0129
1sauter hn-d282026-08-17 00:07:0228
1jvc hr-s770092026-08-16 00:07:0129
1jvc hr-s7711172026-08-16 00:07:0128
1fold filter802026-08-16 00:07:0129
1panasonic ew 1614 w 503142026-08-16 00:07:0129
1jvc hr-s5950152026-08-16 00:07:0129
1petec bremsenreiniger spray 500 ml1232026-08-16 00:07:0129
1ixs knie protektoren872026-08-16 00:07:0127
1candy uptown1602026-08-16 00:07:0129
1casafan airos eco silent232026-08-16 00:07:0128
1ixs knie protektoren xs92026-08-16 00:07:0125
1intenso premium line 32 gb usb-stick usb512026-08-16 00:07:0129
1fronius symo 5.0-3 m772026-08-16 00:07:0128
1diesel zatiny schwarz 30 30122026-08-16 00:07:0129
1gasdruckdämpfer 300mm 700n252026-08-16 00:07:0129
1kurbel e bike 1 fach 3882026-08-16 00:07:0129
1notizzettel quadratisch412026-08-16 00:07:0129
1kostal plenticore g2 5.5702026-08-16 00:07:0127
1pjur basic712026-08-16 00:07:0129
1shimano bb-un300 122mm302026-08-16 00:07:0127
1shimano bb-un300 122mm 73mm82026-08-16 00:07:0128
1rexona men maximum protection deo creme282026-08-16 00:07:0128
1shimano bb-un300 122.5 73392026-08-16 00:07:0128
1digipure282026-08-16 00:07:0128
13d dnr s-vhs212026-08-16 00:07:0129
1sony sonnar t fe 55mm f1.8 za1272026-08-16 00:07:0129
1intenso green line1162026-08-16 00:07:0129
1sony sel 55mm f1.8 za732026-08-16 00:07:0129
132 nuss 1 2 zoll2042026-08-16 00:07:0129
1hyperlite pleasure wakeboard 156152026-08-16 00:07:0128
1h470 power102026-08-16 00:07:0125
1shelly wave h t lr152026-08-17 00:07:0228
1laiwu 032692026-08-16 00:07:0127
1bd670 lg162026-08-17 00:07:0228
1schöffel herren pants folkstone zip off 58202026-08-16 00:07:0128
1nutrilabs rascave hepar forte tabletten162026-08-16 00:07:0128
1pfsa 20-li b2202026-08-16 00:07:0128
1schöffel herren zip-off pants folkstone 58202026-08-16 00:07:0128
1märklin 47168172026-08-16 00:07:0128
1pjur basic 250ml172026-08-16 00:07:0126
1asus rog swift pg27ucwm102026-08-16 00:07:0144
1asus 27 zoll gaming monitor7642026-08-16 00:07:0146
1giro fixture ii dark sage222026-08-16 00:07:0127
1leatherman rebar knifeless182026-08-16 00:07:0127
1bosch 4 hkr39c250342026-08-16 00:07:0129
1asus rog swift oled pg27aqwp-w712026-08-16 00:07:0144
1bosch serie 4 hkr39c220202026-08-16 00:07:0129
1ottolenghi kochbuch1952026-08-16 00:07:0128
1liquid force hook432026-08-16 00:07:0129
1hobbit extended blu trilogie792026-08-16 00:07:0129
1lobux- handtuchhalter142026-08-16 00:07:0128
1crucial 16gb 3200 so dimm2102026-08-17 00:07:0228
13-backen spannfutter set502026-08-17 00:07:0229
1cat socken 9 paar1132026-08-17 00:07:0228
1timemore 31442026-08-17 00:07:0228
1sonnensegel 4x1,4102026-08-17 00:07:0228
1casafan eco airscrew deckenventilator1662026-08-17 00:07:0229
1gold tip traditional 340152026-08-17 00:07:0229
1kingston fury beast ddr5 5600mt s rgb 32gb modul422026-08-17 00:07:0229
1dry-bag light 12322026-08-17 00:07:0229
1toolcraft usc-3000 ultraschallreiniger reinigungsgerät142026-08-17 00:07:0229
1der wiim ultra1052026-08-17 00:07:0227
1samsung tablet a 11 plus1342026-08-17 00:07:0228
1samsung tablet a 11 plus 6gb202026-08-17 00:07:0228
1s27 ultra492026-08-17 00:07:0229
1mountain equipment klimatic ii462026-08-17 00:07:0228
1freytag berndt wk 411162026-08-17 00:07:0227
1scheppach akku-kettensäge c-cs254-x - set s92026-08-17 00:07:0229
1cube compact hybrid 545442026-08-17 00:07:0228
1gardena starcut pro l 12082-20112026-08-17 00:07:0228
1druckluft-reifenfüllpistole drp-18 st digital132026-08-17 00:07:0229
1king of tokyo monsterbox102026-08-17 00:07:0229
1schütte dusch-wc spülrandlos cesari premium122026-08-17 00:07:0229
1birkenstock mayari 38 leder442026-08-17 00:07:0229
120003147152026-08-17 00:07:0225
1nässeschutzplane elefantenhaut252026-08-17 00:07:0224
1tru components 12888424102026-08-17 00:07:0254
1quadrios 2011c400142026-08-17 00:07:0253
1830981862026-08-17 00:07:0225
1birkenstock mayari 38 geölt132026-08-17 00:07:0226
1quadrios 22c463172026-08-17 00:07:0253
1revlon professional style masters3112026-08-17 00:07:0227
1leseleuchte mit fuss132026-08-17 00:07:0227
1leseleuchte mit fuss led172026-08-17 00:07:0228
1zte g5ts 5g142026-08-17 00:07:0229
1möve bademantel ruby362026-08-17 00:07:0228
1hdmi auf dp adapter5952026-08-17 00:07:0229
160051 lego 60337162026-08-17 00:07:0229
1druckschalter 1100 700 b112026-08-17 00:07:0228
11085595102026-08-17 00:07:0227
1fairphone 6 -vertrag1142026-08-17 00:07:0228
1fairphone 6 - vertrag1592026-08-17 00:07:0229
1fairphone 6 vertrag1592026-08-17 00:07:0228
1xilence m403pro622026-08-17 00:07:0227
1mova tech p50 ultra82026-08-17 00:07:0228
1winkelschraubendreher kreuz1222026-08-17 00:07:0228
1bottleplus332026-08-17 00:07:0223
1frieda kahlo1432026-08-17 00:07:0227
1coffee clean entkalkungstabletten132026-08-17 00:07:0228
1beyer aventho 100182026-08-17 00:07:0229
1almapharm methio tabs h102026-08-17 00:07:0229
1alphatronics sla22242026-08-17 00:07:0225
1tc-907038492026-08-17 00:07:0229
1haftsperrgrund82026-08-17 00:07:0227
1personalisiertes taschenalbum132026-08-17 00:07:0229
1raw ethereal 50212026-08-17 00:07:0229
1juwel samba 140102026-08-17 00:07:0227
1weckman trapezblech verzinkt112026-08-17 00:07:0228
1braun rasierapparat serie 9 pro692026-08-17 00:07:0229
1scorpion exo-com link-1782026-08-17 00:07:0228
1tu-tfm-bag82026-08-17 00:07:0229
1hoymiles hms-1000 2t412026-08-17 00:07:0228
1nxr 2 accolade tc-10112026-08-17 00:07:0229
1cob 5v 400led m712026-08-17 00:07:0228
1sdssdh3-4t00-g26112026-08-17 00:07:0225
1geox flexride102026-08-17 00:07:0229
1geox flextride8152026-08-17 00:07:0229
1wwa 120 wcs 8kg102026-08-17 00:07:0228
1eurolite akku ip flat light 3 sw712026-08-17 00:07:0229
anzahl 218 xml 218


Preisvergleich
Wichtige Information zu den Preisangaben: Alle Preise verstehen sich inklusive der gesetzlichen Mehrwertsteuer und gegebebenfalls zuzüglich Versandkosten. Zum Zeitpunkt des Kaufes ist der aktuell auf der Händlerseite angegebene Preis maßgeblich. Bitte beachten Sie, dass aus technischen Gründen zeitweise Abweichungen, des Preises, der Lieferbarkeit und der Versandkosten entstehen können.

Affiliate-Offenlegung: Wenn Sie auf dieser Website auf Links zu verschiedenen Händlern klicken und einen Kauf tätigen, kann dies dazu führen, dass diese Website eine Provision erhält. Zu den Partnerprogrammen und Partnerschaften gehört unter anderem das eBay Partner Network. Als Amazon-Partner verdienen wir an qualifizierten Verkäufen.

Diese Website verwendet Cookies und Dienste von Drittanbietern. Durch die Nutzung dieser Website erklären Sie sich damit einverstanden, dass wir Cookies verwenden und Daten an Drittanbieter weitergeben. Insbesondere geben Sie durch das Klicken auf externe Links Ihr Einverständnis, dass anonyme Affiliate-Tracking-Cookies verwendet werden.

Meta-Preisvergleich - Ihre intelligente Shopping-Plattform

Funktionen:
Preisvergleich - Produktvergleich - Shopbewertung - Gutscheine - Produktbilder

Themen:
Buch Preisvergleich - Musik Preisvergleich - Film Preisvergleich - Spiele Computerspiele - Medikamente - Ärzte - Optik und Kontaktlinsen - Krankenversicherung - Preisvergleich Reisen - Kreuzfahrt Preisvergleich - Flüge Preisvergleich - Mietwagen - Hotel Preisvergleich - Ferienhaus Mieten - Stromtarife - Versicherungen - Geldanlage - Finanzierung - Auto - Immobilien - Handy-Tarife - Internetzugang - Geschenke - Singlebörsen - KI-Chatbot

Erklärungen:
Preisvergleich Übersicht / Marktübersicht - Liste der Preisvergleich Quellen - Benutzerdefinierte Preisvergleich Quellen - Erklärungen zum Meta-Preisvergleich

Sitemaps:
1 - 2 - 3 - 4 - 5 - 6 - 7 - 8 - 9 - 10 - 11 - 12 - 13 - 14 - 15 - 16 - 17 - 18 - 19 - 20 - 21 - 22 - 23 - 24 - 25 - 26 - 27 - 28 - 29 - 30 - 31 - 32 - 33 - 34 - 35 - 36 - 37 - 38 - 39 - 40 - 41 - 42 - 43 - 44 - 45 - 46 - 47 - 48 - 49 - 50 - 51 - 52 - 53 - 54 - 55 - 56 - 57 - 58 - 59 - 60 - 61 - 62 - 63 - 64 - 65 - 66 - 67 - 68 - 69 - 70 - 71 - 72 - 73 - 74 - 75 - 76 - 77 - 78 - 79 - 80 - 81 - 82 - 83 - 84 - 85 - 86 - 87 - 88 - 89 - 90 - 91 - 92 - 93 - 94 - 95 - 96 - 97 - 98 - 99 - 100 -
Impressum / Datenschutzerklärung     Presse / Links / Logos    
Copyright © 2003-2026 MetaMind GmbH